GW1622 Weather Reports


Display with metric or nautical units.
time (UTC)temp
F
wind
direction
speed
MPH
gust
MPH
rain 1hr
in
rain 24hr
in
rain mn
in
humidity
%
barometer
mb
20260906135018 71 0 0.0 1.0 0.00 0.02 0.02 86 1012.7
20260906134539 71 0 0.0 2.0 0.00 0.02 0.02 86 1012.6
20260906134019 70 0 0.0 2.0 0.00 0.02 0.02 85 1012.5
20260906133516 70 241 0.0 2.0 0.00 0.02 0.02 85 1012.4
20260906133041 71 241 0.0 2.0 0.00 0.02 0.02 85 1012.3
20260906132518 71 0 0.0 2.0 0.00 0.02 0.02 84 1012.3
20260906132021 72 0 0.0 2.0 0.00 0.02 0.02 83 1012.4
20260906131550 72 0 0.0 4.0 0.00 0.02 0.02 81 1012.4
20260906131021 71 266 2.0 4.0 0.00 0.02 0.02 79 1012.3
20260906130520 70 250 0.0 1.0 0.00 0.02 0.02 78 1012.1
20260906130045 70 0 0.0 0.0 0.00 0.02 0.02 82 1012.1
20260906125517 69 0 0.0 0.0 0.00 0.02 0.02 86 1011.9
20260906125017 68 0 0.0 0.0 0.00 0.02 0.02 88 1011.7
20260906124540 69 0 0.0 0.0 0.00 0.02 0.02 90 1011.6
20260906124018 69 0 0.0 0.0 0.00 0.02 0.02 91 1011.7
20260906123518 69 0 0.0 0.0 0.00 0.02 0.02 92 1011.9
20260906123042 69 0 0.0 0.0 0.00 0.02 0.02 92 1011.8
20260906122520 69 0 0.0 0.0 0.00 0.02 0.02 92 1011.7
20260906122016 69 0 0.0 0.0 0.00 0.02 0.02 92 1011.7
20260906121535 69 0 0.0 0.0 0.00 0.02 0.02 92 1011.9
20260906121023 69 0 0.0 0.0 0.00 0.02 0.02 92 1012.0
20260906120522 68 0 0.0 0.0 0.00 0.02 0.02 92 1012.2
20260906120039 69 0 0.0 0.0 0.00 0.02 0.02 92 1012.2
20260906115520 69 0 0.0 0.0 0.00 0.02 0.02 93 1012.2
20260906115024 69 0 0.0 0.0 0.00 0.02 0.02 93 1012.1
20260906114536 69 0 0.0 0.0 0.00 0.02 0.02 93 1012.2
20260906114020 70 0 0.0 0.0 0.00 0.02 0.02 93 1012.1
20260906113517 70 0 0.0 0.0 0.00 0.02 0.02 93 1012.2
20260906113036 70 0 0.0 1.0 0.01 0.02 0.02 93 1012.2
20260906112520 70 0 0.0 1.0 0.01 0.02 0.02 93 1012.1
20260906112017 70 0 0.0 0.0 0.01 0.02 0.02 93 1012.1
20260906111539 70 0 0.0 0.0 0.01 0.02 0.02 93 1012.2
20260906111017 70 0 0.0 0.0 0.01 0.02 0.02 93 1012.2
20260906110517 70 0 0.0 0.0 0.01 0.02 0.02 93 1012.2
20260906110037 70 0 0.0 0.0 0.01 0.02 0.02 93 1012.2
20260906105518 70 0 0.0 0.0 0.01 0.02 0.02 93 1012.3
20260906105019 70 0 0.0 0.0 0.01 0.02 0.02 93 1012.2
20260906104538 70 0 0.0 0.0 0.01 0.02 0.02 93 1012.3
20260906104020 70 0 0.0 0.0 0.01 0.02 0.02 93 1012.4
20260906103520 70 0 0.0 1.0 0.01 0.02 0.02 93 1012.4
20260906103035 70 0 0.0 2.0 0.00 0.01 0.01 93 1012.3
20260906102518 70 0 0.0 2.0 0.00 0.01 0.01 93 1012.4
20260906102017 70 0 0.0 0.0 0.00 0.01 0.01 92 1012.3
20260906101542 70 0 0.0 0.0 0.00 0.01 0.01 92 1012.2
20260906101017 70 0 0.0 0.0 0.00 0.01 0.01 92 1012.4
20260906100527 70 0 0.0 1.0 0.00 0.01 0.01 92 1012.4
20260906100041 70 0 0.0 1.0 0.00 0.01 0.01 92 1012.4
20260906095521 70 0 0.0 0.0 0.00 0.01 0.01 92 1012.4
20260906095018 70 0 0.0 0.0 0.00 0.01 0.01 92 1012.2
20260906094541 70 0 0.0 0.0 0.00 0.01 0.01 92 1012.3
20260906094017 70 0 0.0 0.0 0.00 0.01 0.01 92 1012.2
20260906093518 70 0 0.0 1.0 0.00 0.01 0.01 92 1012.3
20260906093052 70 0 0.0 1.0 0.00 0.01 0.01 92 1012.5
20260906092521 70 0 0.0 1.0 0.00 0.01 0.01 92 1012.5
20260906092022 70 0 0.0 0.0 0.00 0.01 0.01 92 1012.5
20260906091536 70 0 0.0 0.0 0.00 0.01 0.01 92 1012.5
20260906091019 70 0 0.0 0.0 0.00 0.01 0.01 92 1012.6
20260906090522 71 0 0.0 1.0 0.01 0.01 0.01 92 1012.5
20260906090044 71 0 0.0 3.0 0.01 0.01 0.01 92 1012.6
20260906085522 71 0 0.0 3.0 0.01 0.01 0.01 92 1012.5
20260906085020 71 5 1.0 2.0 0.01 0.01 0.01 91 1012.5
20260906084550 71 0 0.0 1.0 0.01 0.01 0.01 91 1012.5
20260906084019 71 0 0.0 1.0 0.01 0.01 0.01 91 1012.7
20260906083517 71 0 0.0 1.0 0.01 0.01 0.01 91 1012.7
20260906083041 71 0 0.0 1.0 0.01 0.01 0.01 91 1012.8
20260906082520 71 0 0.0 0.0 0.01 0.01 0.01 90 1012.9
20260906082019 71 0 0.0 0.0 0.01 0.01 0.01 90 1013.0
20260906081539 71 0 0.0 0.0 0.01 0.01 0.01 90 1013.1
20260906081018 72 0 0.0 0.0 0.01 0.01 0.01 90 1013.1
20260906080518 72 0 0.0 0.0 0.00 0.00 0.00 89 1013.1
20260906080052 72 0 0.0 0.0 0.00 0.00 0.00 89 1013.2
20260906075519 71 0 0.0 1.0 0.00 0.00 0.00 89 1013.2
20260906075020 71 0 0.0 1.0 0.00 0.00 0.00 89 1013.1
20260906074543 71 0 0.0 1.0 0.00 0.00 0.00 88 1013.2
20260906074020 71 0 0.0 0.0 0.00 0.00 0.00 88 1013.2
20260906073520 72 0 0.0 1.0 0.00 0.00 0.00 88 1013.2
20260906073041 71 0 0.0 1.0 0.00 0.00 0.00 89 1013.0
20260906072520 71 0 0.0 1.0 0.00 0.00 0.00 89 1013.2
20260906072024 71 0 0.0 2.0 0.00 0.00 0.00 89 1013.1
20260906071541 71 0 0.0 2.0 0.00 0.00 0.00 89 1013.0
20260906071019 71 0 0.0 4.0 0.00 0.00 0.00 89 1013.0
20260906070518 71 0 0.0 4.0 0.00 0.00 0.00 89 1013.0
20260906070039 71 0 1.0 4.0 0.00 0.00 0.00 89 1013.0
20260906065518 71 360 0.0 2.0 0.00 0.00 0.00 89 1013.0
20260906065021 71 0 0.0 0.0 0.00 0.00 0.00 89 1012.9
20260906064537 71 0 0.0 1.0 0.00 0.00 0.00 89 1013.0
20260906064019 72 0 0.0 1.0 0.00 0.00 0.00 89 1013.1
20260906063518 72 0 0.0 0.0 0.00 0.00 0.00 88 1013.1
20260906063038 72 0 0.0 1.0 0.00 0.00 0.00 88 1013.0
20260906062520 72 0 0.0 1.0 0.00 0.00 0.00 88 1013.1
20260906062017 72 0 0.0 1.0 0.00 0.00 0.00 87 1013.1
20260906061539 72 0 0.0 1.0 0.00 0.00 0.00 87 1013.0
20260906061017 72 0 0.0 1.0 0.00 0.00 0.00 87 1013.0
20260906060524 72 0 0.0 1.0 0.00 0.00 0.00 86 1012.8
20260906060045 72 0 0.0 1.0 0.00 0.00 0.00 86 1012.8
20260906055520 72 360 0.0 1.0 0.00 0.00 0.00 85 1012.8
20260906055020 72 0 0.0 1.0 0.00 0.00 0.00 85 1012.8
20260906054540 72 0 0.0 1.0 0.00 0.00 0.00 84 1012.9
20260906054016 72 0 0.0 1.0 0.00 0.00 0.00 84 1012.8
20260906053519 72 0 0.0 1.0 0.00 0.00 0.00 84 1012.9
20260906053038 72 360 0.0 1.0 0.00 0.00 0.00 84 1013.0
20260906052518 71 0 0.0 1.0 0.00 0.00 0.00 84 1013.0
20260906052018 72 0 0.0 1.0 0.00 0.00 0.00 85 1013.0
20260906051537 72 0 0.0 2.0 0.00 0.00 0.00 85 1013.0
20260906051020 72 0 0.0 2.0 0.00 0.00 0.00 85 1013.1
20260906050517 72 0 0.0 1.0 0.00 0.00 0.00 84 1013.1
20260906050043 72 0 0.0 1.0 0.00 0.00 0.00 84 1012.9
20260906045518 73 0 0.0 1.0 0.00 0.00 0.00 85 1013.0
20260906045018 73 0 0.0 1.0 0.00 0.00 0.00 84 1013.0
20260906044538 72 0 0.0 0.0 0.00 0.00 0.00 82 1013.0
20260906044021 72 0 0.0 1.0 0.00 0.00 0.00 84 1012.9
20260906043518 71 0 0.0 1.0 0.00 0.00 0.00 84 1012.9
20260906043036 71 0 0.0 1.0 0.00 0.00 0.00 85 1012.9
20260906042518 71 0 0.0 1.0 0.00 0.00 0.00 86 1013.1
20260906042020 71 0 0.0 0.0 0.00 0.00 0.00 86 1012.9
20260906041541 71 0 0.0 0.0 0.00 0.00 0.00 87 1012.9
20260906041018 71 0 0.0 0.0 0.00 0.00 0.00 87 1012.9
20260906040517 71 0 0.0 0.0 0.00 0.00 0.00 88 1012.9
20260906040046 71 0 0.0 0.0 0.00 0.00 0.00 88 1012.7
20260906035519 71 0 0.0 0.0 0.00 0.00 0.00 88 1013.0
20260906035018 71 0 0.0 1.0 0.00 0.00 0.00 88 1013.0
20260906034542 71 0 0.0 1.0 0.00 0.00 0.00 88 1012.9
20260906034017 71 0 0.0 2.0 0.00 0.00 0.00 88 1012.8
20260906033520 72 360 0.0 2.0 0.00 0.00 0.00 88 1012.7
20260906033037 72 0 0.0 2.0 0.00 0.00 0.00 88 1012.8
20260906032521 72 360 0.0 2.0 0.00 0.00 0.00 88 1012.8
20260906032020 72 360 0.0 3.0 0.00 0.00 0.00 87 1012.9
20260906031538 72 0 0.0 3.0 0.00 0.00 0.00 87 1012.7
20260906031021 72 360 1.0 3.0 0.00 0.00 0.00 87 1012.7
20260906030522 72 360 1.0 4.0 0.00 0.00 0.00 87 1012.6
20260906030041 72 0 0.0 4.0 0.00 0.00 0.00 87 1012.5
20260906025518 72 350 1.0 2.0 0.00 0.00 0.00 87 1012.5
20260906025018 72 9 1.0 2.0 0.00 0.00 0.00 87 1012.5
20260906024541 72 306 1.0 2.0 0.00 0.00 0.00 87 1012.5
20260906024020 72 360 0.0 3.0 0.00 0.00 0.00 87 1012.4
20260906023518 71 0 0.0 3.0 0.00 0.00 0.00 87 1012.4
20260906023043 72 0 0.0 6.0 0.00 0.00 0.00 87 1012.4
20260906022518 72 0 1.0 6.0 0.00 0.00 0.00 87 1012.4
20260906022021 72 352 0.0 4.0 0.00 0.00 0.00 87 1012.5
20260906021545 72 352 1.0 4.0 0.00 0.00 0.00 87 1012.3
20260906021019 72 350 2.0 5.0 0.00 0.00 0.00 87 1012.4
20260906020518 72 13 2.0 5.0 0.00 0.00 0.00 87 1012.4
20260906020042 72 14 1.0 3.0 0.00 0.00 0.00 87 1012.5
20260906015517 72 0 0.0 3.0 0.00 0.00 0.00 86 1012.4
20260906015017 72 0 0.0 5.0 0.00 0.00 0.00 86 1012.5
20260906014545 72 5 1.0 5.0 0.00 0.00 0.00 86 1012.5
20260906014018 72 0 0.0 2.0 0.00 0.00 0.00 85 1012.6
20260906013517 72 0 0.0 3.0 0.00 0.00 0.00 85 1012.4
20260906013036 73 0 0.0 5.0 0.00 0.00 0.00 85 1012.5
20260906012518 73 44 0.0 5.0 0.00 0.00 0.00 85 1012.6
20260906012021 73 0 1.0 5.0 0.00 0.00 0.00 84 1012.6
20260906011540 73 37 1.0 5.0 0.00 0.00 0.00 84 1012.6
20260906011020 73 16 0.0 3.0 0.00 0.00 0.00 84 1012.7
20260906010520 73 297 0.0 3.0 0.00 0.00 0.00 83 1012.7
20260906010043 73 0 0.0 4.0 0.00 0.00 0.00 83 1012.7
20260906005521 73 49 0.0 4.0 0.00 0.00 0.00 82 1012.5
20260906005024 73 30 0.0 5.0 0.00 0.00 0.00 82 1012.5
20260906004544 74 0 0.0 5.0 0.00 0.00 0.00 82 1012.5
20260906004027 74 5 0.0 5.0 0.00 0.00 0.00 81 1012.7
20260906003518 74 29 1.0 5.0 0.00 0.00 0.00 81 1012.5
20260906003043 74 13 2.0 6.0 0.00 0.00 0.00 81 1012.4
20260906002518 74 0 1.0 7.0 0.00 0.00 0.00 81 1012.4
20260906002020 74 277 2.0 7.0 0.00 0.00 0.00 81 1012.5
20260906001541 74 37 1.0 4.0 0.00 0.00 0.00 81 1012.5
20260906001020 75 0 1.0 4.0 0.00 0.00 0.00 81 1012.7
20260906000520 75 19 1.0 5.0 0.00 0.00 0.00 81 1012.6
20260906000043 75 74 2.0 5.0 0.00 0.00 0.00 81 1012.6
20260905235520 75 360 0.0 9.0 0.00 0.00 0.00 81 1012.6
20260905235020 75 0 2.0 9.0 0.00 0.00 0.00 81 1012.6
20260905234538 75 30 3.0 9.0 0.00 0.00 0.00 81 1012.6
20260905234026 75 63 3.0 9.0 0.00 0.00 0.00 80 1012.7
20260905233518 75 352 3.0 8.0 0.00 0.00 0.00 79 1012.6
20260905233059 76 0 2.0 8.0 0.00 0.00 0.00 78 1012.7
20260905232523 76 58 1.0 5.0 0.00 0.00 0.00 79 1012.7
20260905232020 77 352 1.0 5.0 0.00 0.00 0.00 78 1012.5
20260905231551 77 5 2.0 10.0 0.00 0.00 0.00 77 1012.7
20260905231019 77 63 3.0 10.0 0.00 0.00 0.00 75 1012.7
20260905230524 77 352 1.0 7.0 0.00 0.00 0.00 75 1012.6
20260905230039 78 19 2.0 7.0 0.00 0.00 0.00 73 1012.7
20260905225521 78 125 2.0 9.0 0.00 0.00 0.00 73 1012.8
20260905225020 77 40 1.0 9.0 0.00 0.00 0.00 72 1012.9
20260905224554 77 82 2.0 8.0 0.00 0.00 0.00 70 1012.7
20260905224018 78 352 1.0 5.0 0.00 0.00 0.00 72 1012.9
20260905223522 79 43 0.0 6.0 0.00 0.00 0.00 73 1012.8
20260905223041 79 17 2.0 6.0 0.00 0.00 0.00 74 1012.9
20260905222522 78 289 1.0 9.0 0.00 0.00 0.00 75 1012.9
20260905222017 78 22 1.0 9.0 0.00 0.00 0.00 77 1012.9
20260905221541 77 349 2.0 12.0 0.00 0.00 0.00 76 1013.0
20260905221024 77 80 3.0 12.0 0.00 0.00 0.00 77 1013.0
20260905220525 78 16 2.0 12.0 0.00 0.00 0.00 76 1013.3
20260905220048 78 94 1.0 5.0 0.00 0.00 0.00 76 1013.2
20260905215518 78 38 1.0 4.0 0.00 0.00 0.00 76 1013.2
20260905215018 78 65 1.0 8.0 0.00 0.00 0.00 75 1013.3
20260905214541 78 141 2.0 8.0 0.00 0.00 0.00 74 1013.4
20260905214017 78 144 2.0 8.0 0.00 0.00 0.00 75 1013.3
20260905213520 78 34 1.0 9.0 0.00 0.00 0.00 75 1013.4
20260905213042 78 247 3.0 9.0 0.00 0.00 0.00 76 1013.4
20260905212519 77 313 3.0 9.0 0.00 0.00 0.00 76 1013.5
20260905212026 78 74 2.0 9.0 0.00 0.00 0.00 75 1013.6
20260905211540 76 275 3.0 9.0 0.00 0.00 0.00 77 1013.6
20260905211019 77 116 1.0 9.0 0.00 0.00 0.00 75 1013.7
20260905210519 78 9 1.0 9.0 0.00 0.00 0.00 75 1013.7
20260905210042 78 26 2.0 9.0 0.00 0.00 0.00 75 1013.7
20260905205520 76 42 2.0 9.0 0.00 0.00 0.00 77 1013.7
20260905205021 76 16 3.0 9.0 0.00 0.00 0.00 77 1013.9
20260905204539 76 343 2.0 9.0 0.00 0.00 0.00 77 1013.9
20260905204017 77 283 2.0 8.0 0.00 0.00 0.00 75 1013.9
20260905203519 76 36 2.0 8.0 0.00 0.00 0.00 76 1013.9
20260905203040 77 32 3.0 7.0 0.00 0.00 0.00 74 1013.9
20260905202519 78 351 2.0 8.0 0.00 0.00 0.00 71 1013.9
20260905202018 78 71 0.0 9.0 0.00 0.00 0.00 71 1014.0
20260905201542 77 38 2.0 9.0 0.00 0.00 0.00 70 1014.0
20260905201020 78 40 4.0 9.0 0.00 0.00 0.00 69 1014.0
20260905200518 78 15 1.0 5.0 0.00 0.00 0.00 70 1014.0
20260905200048 78 40 1.0 6.0 0.00 0.00 0.00 69 1014.1
20260905195521 79 0 0.0 12.0 0.00 0.00 0.00 68 1014.1
20260905195017 78 14 2.0 12.0 0.00 0.00 0.00 71 1014.2
20260905194542 78 18 3.0 12.0 0.00 0.00 0.00 72 1014.3
20260905194018 77 309 2.0 5.0 0.00 0.00 0.00 72 1014.2
20260905193518 78 0 0.0 5.0 0.00 0.00 0.00 70 1014.3
20260905193037 78 40 1.0 5.0 0.00 0.00 0.00 70 1014.4
20260905192525 78 0 0.0 3.0 0.00 0.00 0.00 72 1014.4
20260905192018 77 0 0.0 3.0 0.00 0.00 0.00 70 1014.5
20260905191544 77 56 0.0 3.0 0.00 0.00 0.00 69 1014.5
20260905191017 76 0 0.0 3.0 0.00 0.00 0.00 71 1014.7
20260905190524 75 0 0.0 5.0 0.00 0.00 0.00 75 1014.7
20260905190057 73 0 0.0 6.0 0.00 0.00 0.00 77 1014.7
20260905185517 73 29 2.0 8.0 0.00 0.00 0.00 76 1014.9
20260905185018 73 0 0.0 8.0 0.00 0.00 0.00 75 1014.9
20260905184558 73 352 1.0 8.0 0.00 0.00 0.00 75 1014.9
20260905184021 73 22 1.0 8.0 0.00 0.00 0.00 75 1014.9
20260905183520 73 13 2.0 5.0 0.00 0.00 0.00 74 1014.7
20260905183042 73 0 2.0 5.0 0.00 0.00 0.00 75 1014.7
20260905182517 73 281 1.0 6.0 0.00 0.00 0.00 73 1014.8
20260905182018 73 21 1.0 6.0 0.00 0.00 0.00 71 1014.8
20260905181540 74 36 1.0 7.0 0.00 0.00 0.00 71 1014.8
20260905181017 74 57 3.0 7.0 0.00 0.00 0.00 71 1014.9
20260905180518 73 46 0.0 5.0 0.00 0.00 0.00 71 1014.9
20260905180038 73 19 2.0 5.0 0.00 0.00 0.00 71 1014.9
20260905175518 73 0 1.0 5.0 0.00 0.00 0.00 73 1014.7
20260905175020 73 5 1.0 5.0 0.00 0.00 0.00 72 1014.7
20260905174545 73 34 1.0 5.0 0.00 0.00 0.00 72 1014.7
20260905174018 73 0 1.0 5.0 0.00 0.00 0.00 71 1014.6
20260905173519 73 38 0.0 3.0 0.00 0.00 0.00 70 1014.6
20260905173040 73 0 0.0 4.0 0.00 0.00 0.00 73 1014.6
20260905172520 73 184 1.0 4.0 0.00 0.00 0.00 71 1014.7
20260905172020 72 0 1.0 4.0 0.00 0.00 0.00 72 1014.6
20260905171540 72 0 0.0 4.0 0.00 0.00 0.00 74 1014.7
20260905171019 72 63 1.0 5.0 0.00 0.00 0.00 74 1014.6
20260905170518 72 346 2.0 5.0 0.00 0.00 0.00 74 1014.5
20260905170040 72 0 1.0 4.0 0.00 0.00 0.00 74 1014.4
20260905165518 72 0 0.0 4.0 0.00 0.00 0.00 73 1014.4
20260905165017 72 0 0.0 4.0 0.00 0.00 0.00 71 1014.4
20260905164541 72 11 0.0 4.0 0.00 0.00 0.00 71 1014.6
20260905164018 71 348 2.0 6.0 0.00 0.00 0.00 70 1014.7
20260905163520 71 5 2.0 6.0 0.00 0.00 0.00 69 1014.6
20260905163041 71 0 0.0 2.0 0.00 0.00 0.00 71 1014.5
20260905162519 71 0 0.0 2.0 0.00 0.00 0.00 71 1014.7
20260905162017 71 0 0.0 3.0 0.00 0.00 0.00 72 1014.5
20260905161538 70 0 0.0 3.0 0.00 0.00 0.00 73 1014.5
20260905161018 70 352 0.0 3.0 0.00 0.00 0.00 73 1014.6
20260905160518 69 0 0.0 0.0 0.00 0.00 0.00 74 1014.4
20260905160040 69 0 0.0 0.0 0.00 0.00 0.00 76 1014.4
20260905155520 69 0 0.0 0.0 0.00 0.00 0.00 79 1014.5
20260905155017 68 0 0.0 0.0 0.00 0.00 0.00 80 1014.5
20260905154540 68 0 0.0 0.0 0.00 0.00 0.00 81 1014.6
20260905154020 68 0 0.0 0.0 0.00 0.00 0.00 82 1014.7
20260905153521 67 0 0.0 0.0 0.00 0.00 0.00 84 1014.6
20260905153040 67 0 0.0 0.0 0.00 0.00 0.00 87 1014.5
20260905152517 66 0 0.0 0.0 0.00 0.00 0.00 90 1014.5
20260905152020 65 0 0.0 0.0 0.00 0.00 0.00 90 1014.5
20260905151543 64 0 0.0 0.0 0.00 0.00 0.00 92 1014.4
20260905151023 63 0 0.0 0.0 0.00 0.00 0.00 92 1014.5
20260905150519 62 0 0.0 0.0 0.00 0.00 0.00 92 1014.3
20260905150040 62 0 0.0 0.0 0.00 0.00 0.00 93 1014.3
20260905145518 62 0 0.0 0.0 0.00 0.00 0.00 93 1014.3
20260905145020 62 0 0.0 0.0 0.00 0.00 0.00 93 1014.2
20260905144544 61 0 0.0 0.0 0.00 0.00 0.00 93 1014.0
20260905144017 62 0 0.0 0.0 0.00 0.00 0.00 93 1014.1
20260905143517 62 0 0.0 0.0 0.00 0.00 0.00 93 1013.9
20260905143040 61 0 0.0 0.0 0.00 0.00 0.00 93 1013.9
20260905142518 61 0 0.0 0.0 0.00 0.00 0.00 93 1013.9
20260905142020 61 0 0.0 0.0 0.00 0.00 0.00 93 1013.8
20260905141543 61 0 0.0 0.0 0.00 0.00 0.00 93 1013.8
20260905141021 61 0 0.0 0.0 0.00 0.00 0.00 93 1013.8
20260905140519 61 0 0.0 0.0 0.00 0.00 0.00 93 1013.8
20260905140040 61 0 0.0 0.0 0.00 0.00 0.00 93 1013.7
20260905135517 62 0 0.0 0.0 0.00 0.00 0.00 93 1013.6